Powrót do katalogu

STARLINK-34708

AktywnyŁącznośćSSO
NORAD 65062·PAYLOAD·🇺🇸 United States

Wystrzelony Jul 31, 2025 z Vandenberg Space Force Base

Loading…

Następne Przeloty (najbliższe 24 godziny)

TLE

ŚwieżeSource: CelesTrak SupGP

Epoka: Sep 15, 2026, 03:46 UTC

1 65062C 25165G   26258.15743056  .02217400  00000+0  73038-1 0  2587
2 65062  97.2842 329.4501 0001547  90.8998   5.9176 15.30423775    13

Śledź STARLINK-34708 w czasie rzeczywistym z AllMySat

Download on the App Store